ORBCOMM FM04

Last updated on Tue Sep 22 2026 00:03:23 GMT+0000 (Coordinated Universal Time)

1 25159U 98007C 26264.54020662 .00000479 00000+0 20914-3 0 9999 2 25159 107.9605 7.7281 0040104 160.5828 199.6850 14.35871613490422
UTC large
Height (km)
Speed (km/s)
/
Latitude / Longitude
Inclination (degrees)
Orbital Period (minutes)
Azimuth
Elevation
Range (km)
Doppler Factor

Next 0 passes for location: London (51.5072 / 0.1276)

No passes found over London.
ORBCOMM FM04